Regional Weather Roundup
Issued by NWS

Home | Current Version | Previous Version | Text Only | Print | Product List | Glossary On
Versions: 1 2 3 4 5 6 7 8 9 10 11 12 13 14 15 16 17 18 19 20 21 22 23 24 25 26 27 28 29 30 31 32 33 34 35 36 37 38 39 40 41 42 43 44 45 46 47 48 49 50
000
ASUS45 KABQ 182110
RWRNM
WEATHER ROUNDUP FOR NEW MEXICO
NATIONAL WEATHER SERVICE ALBUQUERQUE NM
200 PM MST THU DEC 18 2014

NOTE: "FAIR" MEANS FEW OR NO CLOUDS BELOW 12,000 FEET AGL WITH NO
       SIGNIFICANT WEATHER OR OBSTRUCTIONS TO VISION.

      THIS PRODUCT IS RELEASED AS TWO VERSIONS.  ONE VERSION NEAR
      THE TOP OF THE HOUR CONTAINING PRELIMINARY DATA FROM ALBUQUERQUE
      AND OTHER STATIONS.  A FINAL VERSION WITH ADDITIONAL DATA IS
      ISSUED ABOUT 10 MINUTES AFTER THE HOUR.

NMZ501-503-504-510>518-182200-
NORTHWEST PLATEAU/NORTHCENTRAL MOUNTAINS

CITY           SKY/WX    TMP DP  RH WIND       PRES   REMARKS
FARMINGTON     MOSUNNY   40  32  73 W7        30.09F
LOS ALAMOS     CLOUDY    33  27  78 CALM      30.08S
SANTA FE       CLOUDY    38  25  59 N8        30.06F WCI  32
TAOS           PTSUNNY   34  25  69 CALM      30.07F
ANGEL FIRE     FAIR      30  21  69 W9        30.04S WCI  22

$$
NMZ402-403-502-505>509-182200-
WESTCENTRAL MOUNTAINS/SOUTHWEST MOUNTAINS

CITY           SKY/WX    TMP DP  RH WIND       PRES   REMARKS
GALLUP         PTSUNNY   36  27  69 W5        30.09F WCI  32
GRANTS         CLOUDY    37  25  62 N6G17     30.10S WCI  32
SILVER CITY    TSTM      41  37  87 NE6       30.07F

$$
NMZ407-409-411-412-182200-
SOUTHERN DESERTS

CITY           SKY/WX    TMP DP  RH WIND       PRES   REMARKS
LORDSBURG      MOCLDY    43  39  87 N7        30.06F THUNDER
DEMING         PTSUNNY   51  39  63 S7        30.05F
LAS CRUCES     PTSUNNY   52  34  51 S3        30.06F
HOLLOMAN AFB   CLOUDY    54  31  40 S1        30.04F
ALAMOGORDO     CLOUDY    54  28  37 S5        30.06F
T OR C         CLOUDY    49  28  44 S9        30.04F

$$
NMZ519>523-182200-
CENTRAL VALLEYS/CENTRAL HIGHLANDS

CITY           SKY/WX    TMP DP  RH WIND       PRES   REMARKS
ALBUQUERQUE    CLOUDY    44  28  53 VRB6      30.09F
DOUBLE EAGLE   PTSUNNY   39  27  60 NW3       30.09F
MORIARTY ARPT  CLOUDY    42  24  48 NW8       30.08S
CLINES CORNERS PTSUNNY   37  22  54 W20       30.03S WCI  27
BELEN          CLOUDY    44  31  59 N6        30.08F
SOCORRO        CLOUDY    48  28  46 CALM      30.06F

$$
NMZ524>526-539-540-182200-
SOUTHCENTRAL MOUNTAINS

CITY           SKY/WX    TMP DP  RH WIND       PRES   REMARKS
RUIDOSO        CLOUDY    45  25  45 SW14      30.07F

$$
NMZ527>531-182200-
NORTHEAST HIGHLANDS/NORTHEAST PLAINS

CITY           SKY/WX    TMP DP  RH WIND       PRES   REMARKS
LAS VEGAS      MOSUNNY   42  17  36 S7        29.99F
RATON          SUNNY     45  20  36 SE7       29.98F
CLAYTON        MOSUNNY   48  31  51 NE3       30.01F

$$
NMZ532>537-182200-
EASTCENTRAL PLAINS

CITY           SKY/WX    TMP DP  RH WIND       PRES   REMARKS
TUCUMCARI      MOSUNNY   44  32  62 VRB3      30.02S
CANNON AFB     SUNNY     55  21  27 W14       30.01F
CLOVIS AIRPORT MOSUNNY   54  25  32 SW7       30.02S

$$
NMZ028-029-538-182200-
SOUTHEAST PLAINS

CITY           SKY/WX    TMP DP  RH WIND       PRES   REMARKS
ROSWELL        CLOUDY    56  32  40 SE10      30.03F
ARTESIA        CLOUDY    57  32  38 SE7       30.03F
CARLSBAD       PTSUNNY   62  32  32 SW5       30.01F
HOBBS          SUNNY     59  28  31 SE5       30.05F


$$


USA.gov is the U.S. government's official web portal to all federal, state and local government web resources and services.